Regional Weather Roundup
Issued by NWS

Home | Current Version | Previous Version | Graphics & Text | Print | Product List | Glossary On
Versions: 1 2 3 4 5 6 7 8 9 10 11 12 13 14 15 16 17 18 19 20 21 22 23 24 25 26 27 28 29 30 31 32 33 34 35 36 37 38 39 40 41 42 43 44 45 46 47 48 49 50
000
ASUS45 KSLC 242310
RWRUT

UTAH REGIONAL WEATHER ROUNDUP
NATIONAL WEATHER SERVICE SALT LAKE CITY UT
500 PM MDT SAT SEP 24 2016

UTZ001>011-023>025-250000-

NORTHERN UTAH

CITY           SKY/WX    TMP DP  RH WIND       PRES   REMARKS
BRIGHAM CITY     N/A     62  37  39 N7        30.27R
HILL AFB       PTSUNNY   60  42  51 W10       30.28S
LOGAN          PTSUNNY   59  41  51 N6        30.26R
OGDEN          PTSUNNY   59  43  55 CALM      30.27S
PROVO AIRPORT  PTSUNNY   57  45  62 SW5       30.30R
SALT LAKE CITY MOSUNNY   62  43  49 W9        30.27S
VERNAL         CLOUDY    57  40  52 SE7       30.22R
WENDOVER       PTSUNNY   66  43  42 SE14      30.27R
HEBER CITY     MOSUNNY   59  34  38 N3        30.27S
WEST JORDAN    SUNNY     60  41  49 NW8       30.29S

$$

UTZ012>022-026-027-250000-

SOUTHERN/CENTRAL UTAH

CITY           SKY/WX    TMP DP  RH WIND       PRES   REMARKS
BLANDING       CLOUDY    60  33  36 E6        30.29R
BRYCE CANYON   MOSUNNY   58  34  40 N9G18     30.31S
CEDAR CITY     SUNNY     65  30  27 N14G23    30.26R
DELTA          SUNNY     63  34  34 NW15      30.28S
MILFORD        MOSUNNY   66  37  34 N13G22    30.25S
MOAB/CYNLANDS  CLOUDY    65  38  36 NW15      30.17R
PRICE          PTSUNNY   57  37  47 NW15G22   30.25R
ST GEORGE      PTCLDY    79  36  21 N5        30.12F

$$

REGIONAL REPORTS     COLORADO/ARIZONA

CITY           SKY/WX    TMP DP  RH WIND       PRES   REMARKS
CRAIG, CO      LGT RAIN  46  41  82 W9        30.27R
GRAND JUNCTION CLOUDY    58  41  53 NW7       30.22R
RIFLE          LGT RAIN  51  44  77 CALM      30.26R
MONTROSE       CLOUDY    57  36  45 NW5       30.26R
CORTEZ         CLOUDY    58  34  40 NW3       30.22S
PAGE, AZ       SUNNY     72  33  24 VRB5      30.15S
GRAND CANYON   SUNNY     65  31  28 N7        30.26S
KINGMAN        SUNNY     80  32  17 N13       30.11S
FLAGSTAFF      SUNNY     62  29  28 E14G21    30.23S

$$

REGIONAL REPORTS    NEVADA/IDAHO/WYOMING

CITY           SKY/WX    TMP DP  RH WIND       PRES   REMARKS
LAS VEGAS, NV  SUNNY     86  24  10 N9        30.05F
ELY            SUNNY     64  29  26 N15       30.32R
ELKO           SUNNY     67  24  19 N8        30.32S
POCATELLO, ID  MOSUNNY   61  40  45 SW20G31   30.26R
BURLEY         SUNNY     59  37  44 W16G23    30.27S
EVANSTON, WY   CLOUDY    47  32  56 NW9       30.33R
ROCK SPRINGS   CLOUDY    45  39  79 W7        30.25R

$$



USA.gov is the U.S. government's official web portal to all federal, state and local government web resources and services.